When you browse on this site, cookies collect data to enhance your experience and personalize the content and advertising you see.
Visit our Privacy Policy to learn more. By continuing to use the site, you agree to this use of cookies and data.

Stündliche Wetter Augsburg

Heute, 6 Juli, Montag

Zeit Temperatur Niederschläge Wind Luftdruck Luftfeuchtigkeit
00:00 +18°C° 0 mm 3 m/S 719 mmHg 92%
01:00 +18°C° 0 mm 3 m/S 719 mmHg 95%
02:00 +18°C° 0.1 mm 3 m/S 719 mmHg 95%
03:00 +18°C° 0.1 mm 3 m/S 719 mmHg 95%
04:00 +18°C° 0.1 mm 3 m/S 718 mmHg 95%
05:00 +18°C° 0.1 mm 4 m/S 718 mmHg 93%
06:00 +19°C° 0.1 mm 5 m/S 718 mmHg 92%
07:00 +20°C° 0.1 mm 6 m/S 719 mmHg 90%
08:00 +17°C° 0.2 mm 5 m/S 719 mmHg 87%
09:00 +16°C° 0.2 mm 5 m/S 719 mmHg 83%
10:00 +15°C° 0.2 mm 5 m/S 719 mmHg 80%
11:00 +15°C° 0 mm 4 m/S 719 mmHg 76%
12:00 +17°C° 0 mm 4 m/S 719 mmHg 73%
13:00 +17°C° 0 mm 4 m/S 720 mmHg 69%
14:00 +18°C° 0 mm 4 m/S 720 mmHg 66%
15:00 +19°C° 0 mm 5 m/S 720 mmHg 62%
16:00 +19°C° 0 mm 6 m/S 720 mmHg 58%
17:00 +17°C° 0 mm 5 m/S 721 mmHg 63%
18:00 +17°C° 0 mm 4 m/S 721 mmHg 67%
19:00 +15°C° 0 mm 4 m/S 721 mmHg 72%
20:00 +13°C° 0 mm 3 m/S 722 mmHg 75%
21:00 +12°C° 0 mm 3 m/S 722 mmHg 78%
22:00 +10°C° 0 mm 3 m/S 722 mmHg 81%
23:00 +10°C° 0 mm 3 m/S 723 mmHg 84%

Morgen, 7 Juli, Dienstag

Zeit Temperatur Niederschläge Wind Luftdruck Luftfeuchtigkeit
00:00 +9°C° 0 mm 2 m/S 723 mmHg 86%
01:00 +9°C° 0 mm 2 m/S 723 mmHg 89%
02:00 +9°C° 0 mm 2 m/S 723 mmHg 90%
03:00 +8°C° 0 mm 2 m/S 723 mmHg 92%
04:00 +8°C° 0 mm 2 m/S 723 mmHg 94%
05:00 +10°C° 0 mm 1 m/S 723 mmHg 89%
06:00 +12°C° 0 mm 1 m/S 723 mmHg 84%
07:00 +12°C° 0 mm 0 m/S 723 mmHg 80%
08:00 +15°C° 0 mm 1 m/S 723 mmHg 74%
09:00 +16°C° 0 mm 1 m/S 722 mmHg 68%
10:00 +19°C° 0 mm 1 m/S 722 mmHg 62%
11:00 +19°C° 0 mm 1 m/S 722 mmHg 59%
12:00 +20°C° 0 mm 1 m/S 721 mmHg 56%
13:00 +21°C° 0 mm 1 m/S 721 mmHg 53%
14:00 +20°C° 0 mm 2 m/S 721 mmHg 54%
15:00 +20°C° 0 mm 2 m/S 721 mmHg 54%
16:00 +20°C° 0 mm 2 m/S 721 mmHg 55%
17:00 +19°C° 0 mm 2 m/S 721 mmHg 61%
18:00 +20°C° 0 mm 1 m/S 721 mmHg 67%
19:00 +19°C° 0 mm 1 m/S 720 mmHg 73%
20:00 +16°C° 0 mm 1 m/S 721 mmHg 76%
21:00 +14°C° 0 mm 1 m/S 721 mmHg 79%
22:00 +12°C° 0 mm 0 m/S 721 mmHg 82%
23:00 +12°C° 0 mm 1 m/S 721 mmHg 83%

übermorgen, 8 Juli, Mittwoch

Zeit Temperatur Niederschläge Wind Luftdruck Luftfeuchtigkeit
00:00 +12°C° 0 mm 1 m/S 721 mmHg 84%
01:00 +12°C° 0 mm 2 m/S 721 mmHg 86%
02:00 +10°C° 0 mm 2 m/S 720 mmHg 87%
03:00 +10°C° 0 mm 2 m/S 720 mmHg 89%
04:00 +10°C° 0 mm 2 m/S 720 mmHg 90%
05:00 +12°C° 0 mm 2 m/S 720 mmHg 87%
06:00 +13°C° 0 mm 2 m/S 721 mmHg 83%
07:00 +15°C° 0 mm 2 m/S 721 mmHg 79%
08:00 +17°C° 0 mm 3 m/S 721 mmHg 75%
09:00 +18°C° 0 mm 3 m/S 721 mmHg 70%
10:00 +20°C° 0 mm 3 m/S 721 mmHg 65%
11:00 +21°C° 0 mm 3 m/S 721 mmHg 63%
12:00 +21°C° 0 mm 4 m/S 721 mmHg 61%
13:00 +22°C° 0 mm 4 m/S 721 mmHg 60%
14:00 +23°C° 0 mm 4 m/S 721 mmHg 60%
15:00 +23°C° 0 mm 4 m/S 721 mmHg 60%
16:00 +23°C° 0 mm 4 m/S 721 mmHg 61%
17:00 +22°C° 0 mm 3 m/S 721 mmHg 67%
18:00 +21°C° 0 mm 2 m/S 722 mmHg 73%
19:00 +20°C° 0 mm 2 m/S 722 mmHg 79%
20:00 +19°C° 0 mm 1 m/S 722 mmHg 83%
21:00 +18°C° 0 mm 1 m/S 722 mmHg 87%
22:00 +14°C° 0 mm 0 m/S 722 mmHg 90%
23:00 +15°C° 0 mm 1 m/S 722 mmHg 91%

9 Juli, Donnerstag

Zeit Temperatur Niederschläge Wind Luftdruck Luftfeuchtigkeit
00:00 +15°C° 0 mm 1 m/S 722 mmHg 91%
01:00 +15°C° 0 mm 1 m/S 722 mmHg 91%
02:00 +14°C° 0 mm 1 m/S 722 mmHg 92%
03:00 +14°C° 0 mm 1 m/S 722 mmHg 93%
04:00 +14°C° 0 mm 1 m/S 722 mmHg 93%
05:00 +15°C° 0 mm 1 m/S 722 mmHg 91%
06:00 +16°C° 0 mm 2 m/S 722 mmHg 88%
07:00 +17°C° 0 mm 2 m/S 722 mmHg 86%
08:00 +19°C° 0 mm 2 m/S 722 mmHg 80%
09:00 +20°C° 0 mm 2 m/S 723 mmHg 75%
10:00 +23°C° 0 mm 2 m/S 723 mmHg 69%
11:00 +23°C° 0 mm 2 m/S 722 mmHg 67%
12:00 +24°C° 0 mm 2 m/S 722 mmHg 65%
13:00 +25°C° 0 mm 2 m/S 722 mmHg 63%
14:00 +25°C° 0 mm 2 m/S 722 mmHg 63%
15:00 +25°C° 0 mm 2 m/S 721 mmHg 63%
16:00 +26°C° 0 mm 2 m/S 721 mmHg 63%
17:00 +25°C° 0 mm 1 m/S 721 mmHg 68%
18:00 +24°C° 0 mm 1 m/S 721 mmHg 72%
19:00 +23°C° 0 mm 1 m/S 721 mmHg 77%
20:00 +22°C° 0 mm 1 m/S 721 mmHg 81%
21:00 +20°C° 0 mm 1 m/S 721 mmHg 85%
22:00 +18°C° 0 mm 2 m/S 721 mmHg 89%
23:00 +17°C° 0 mm 2 m/S 720 mmHg 90%

10 Juli, Freitag

Zeit Temperatur Niederschläge Wind Luftdruck Luftfeuchtigkeit
00:00 +17°C° 0 mm 2 m/S 720 mmHg 91%
01:00 +17°C° 0 mm 2 m/S 720 mmHg 93%
02:00 +16°C° 0 mm 2 m/S 720 mmHg 93%
03:00 +16°C° 0 mm 1 m/S 719 mmHg 93%
04:00 +16°C° 0 mm 1 m/S 719 mmHg 93%
05:00 +17°C° 0 mm 2 m/S 719 mmHg 90%
06:00 +18°C° 0 mm 2 m/S 719 mmHg 87%
07:00 +20°C° 0 mm 2 m/S 719 mmHg 83%
08:00 +21°C° 0 mm 2 m/S 719 mmHg 76%
09:00 +24°C° 0 mm 2 m/S 719 mmHg 69%
10:00 +26°C° 0 mm 3 m/S 719 mmHg 62%
11:00 +27°C° 0 mm 3 m/S 718 mmHg 59%
12:00 +28°C° 0 mm 3 m/S 718 mmHg 55%
13:00 +29°C° 0 mm 3 m/S 718 mmHg 51%
14:00 +29°C° 0 mm 2 m/S 718 mmHg 52%
15:00 +29°C° 0 mm 2 m/S 718 mmHg 52%
16:00 +29°C° 0 mm 2 m/S 717 mmHg 53%
17:00 +26°C° 1.3 mm 2 m/S 718 mmHg 66%
18:00 +22°C° 1.3 mm 3 m/S 718 mmHg 79%
19:00 +19°C° 1.3 mm 4 m/S 718 mmHg 92%
20:00 +19°C° 0.4 mm 3 m/S 719 mmHg 93%
21:00 +18°C° 0.4 mm 2 m/S 719 mmHg 94%
22:00 +19°C° 0.4 mm 1 m/S 720 mmHg 95%
23:00 +17°C° 2.4 mm 2 m/S 720 mmHg 95%

11 Juli, Samstag

Zeit Temperatur Niederschläge Wind Luftdruck Luftfeuchtigkeit
00:00 +17°C° 2.4 mm 2 m/S 720 mmHg 95%
01:00 +16°C° 2.4 mm 3 m/S 720 mmHg 95%
02:00 +14°C° 0.7 mm 3 m/S 720 mmHg 94%
03:00 +13°C° 0.7 mm 3 m/S 720 mmHg 93%
04:00 +13°C° 0.7 mm 2 m/S 720 mmHg 92%
05:00 +13°C° 0.1 mm 2 m/S 720 mmHg 91%
06:00 +13°C° 0.1 mm 2 m/S 721 mmHg 90%
07:00 +13°C° 0.1 mm 2 m/S 721 mmHg 89%
08:00 +14°C° 0 mm 2 m/S 722 mmHg 82%
09:00 +15°C° 0 mm 2 m/S 722 mmHg 76%
10:00 +16°C° 0 mm 2 m/S 723 mmHg 70%
11:00 +16°C° 0 mm 2 m/S 723 mmHg 67%
12:00 +17°C° 0 mm 2 m/S 723 mmHg 65%
13:00 +18°C° 0 mm 2 m/S 723 mmHg 63%
14:00 +18°C° 0 mm 2 m/S 723 mmHg 62%
15:00 +18°C° 0 mm 2 m/S 724 mmHg 61%
16:00 +19°C° 0 mm 2 m/S 724 mmHg 60%
17:00 +18°C° 0 mm 2 m/S 724 mmHg 64%
18:00 +17°C° 0 mm 2 m/S 724 mmHg 69%
19:00 +18°C° 0 mm 1 m/S 724 mmHg 73%
20:00 +15°C° 0 mm 1 m/S 724 mmHg 74%
21:00 +13°C° 0 mm 1 m/S 724 mmHg 76%
22:00 +12°C° 0 mm 1 m/S 724 mmHg 77%
23:00 +11°C° 0 mm 1 m/S 724 mmHg 78%
Mehr zeigen